Home   Weather   Río Grande   Past weeks

Flag for Argentina Past Weather in Río Grande, Tierra del Fuego, Argentina — Yesterday and Last 2 Weeks

Now
48 °F

Partly sunny.


Feels Like: 41 °F
Forecast: 42 / 52 °F
Wind: 21 mph from Northwest

Location: Rio Grande B. A.

Current Time: Sep 27, 2016 at 9:15:39 PM

Latest Report: Sep 27, 2016 at 7:00 PM


Visibility: N/A

Pressure: 30.01 "Hg

Humidity: 76%

Dew Point: 41 °F

Location of Río GrandeLocation

Past Weather in Río Grande — Graph

°F

Río Grande Temperature Yesterday

Maximum temperature yesterday: 54 °F (at 5:00 PM)
Minimum temperature yesterday: 37 °F (at 11:00 PM)
Average temperature yesterday: 44 °F

High & Low Weather Summary for the Past Weeks

 TemperatureHumidityPressure
High59 °F (Sep 18, 1:00 PM)100% (Sep 13, 12:00 AM)32.52 "Hg (Sep 13, 12:00 AM)
Low28 °F (Sep 25, 8:00 AM)47% (Sep 16, 11:00 PM)29.30 "Hg (Sep 20, 5:00 AM)
Average43 °F87%29.82 "Hg
* Reported Sep 12 8:00 PM — Sep 27 7:00 PM, Río Grande, Weather by CustomWeather, © 2016

Note: Actual official high and low records may vary slightly from our data, if they occured in-between our weather recording intervals... More about our weather records

Advertising

Río Grande Weather History for the Previous 24 Hours

Scroll right to see more
 ConditionsComfort  
Time TempWeatherWind HumidityBarometerVisibility
7:00 PM
Tue, Sep 27
48 °FPartly sunny.21 mph76%30.01 "HgN/A
6:00 PM50 °FScattered clouds.28 mph67%29.98 "HgN/A
5:00 PM52 °FScattered clouds.26 mph67%29.98 "HgN/A
4:00 PM54 °FPassing clouds.25 mph67%29.95 "HgN/A
3:00 PM54 °FPassing clouds.21 mph67%29.95 "HgN/A
2:00 PM54 °FPassing clouds.18 mph77%29.95 "HgN/A
1:00 PM52 °FPassing clouds.23 mph50%29.98 "HgN/A
12:00 PM48 °FSunny.20 mph62%29.98 "Hg10 mi
11:00 AM46 °FPartly sunny.17 mph76%29.95 "HgN/A
10:00 AM43 °FMore clouds than sun.14 mph76%29.95 "HgN/A
9:00 AM39 °FScattered clouds.14 mph87%29.95 "HgN/A
8:00 AM34 °FScattered clouds.12 mph87%29.92 "HgN/A
7:00 AM34 °FPassing clouds.14 mph87%29.92 "HgN/A
6:00 AM32 °FPassing clouds.10 mph87%29.89 "HgN/A
5:00 AM30 °FClear.13 mph93%29.89 "Hg10 mi
3:00 AM32 °FClear.10 mph80%29.83 "Hg10 mi
1:00 AM34 °FClear.13 mph81%29.80 "Hg10 mi
12:00 AM36 °FPassing clouds.10 mph87%29.77 "HgN/A
11:00 PM
Mon, Sep 26
37 °FClear.16 mph81%29.77 "Hg10 mi
10:00 PM39 °FClear.15 mph87%29.71 "Hg10 mi
9:00 PM41 °FClear.16 mph81%29.68 "Hg10 mi
Weather by CustomWeather, © 2016

See weather overviewHow to use our weather pages